Location: Brantford
(43.1330°N, 80.2670°W)
Time: 05:51:09
(UTC-05:00)

Tiros 1 despin weight - Pass Details

Date: 26 November 2019
Orbit: 594 x 642 km, 48.2° (Epoch: 08 December)

Event Time Altitude Azimuth Distance (km) Brightness Sun altitude
Rises 17:41:17 0° 285° (WNW) 2,840 ? -9.5°
Reaches altitude 10° 17:44:18 10° 263° (W) 1,941 ? -10.0°
Maximum altitude 17:47:01 16° 225° (SW) 1,586 ? -10.5°
Drops below altitude 10° 17:49:46 10° 187° (S) 1,950 ? -10.9°
Sets 17:52:49 0° 166° (SSE) 2,861 ? -11.5°
